Flag for Canada Weather past 2 weeks in Peterborough, Ontario, Canada

Now
70 °F

Cloudy.


Feels Like: 70 °F
Forecast: 60 / 73 °F
Wind: 3 mph from East

Location: Peterborough Airport

Current Time: Aug 21, 2014 at 8:20:59 PM

Latest Report: Aug 21, 2014 at 7:00 PM


Visibility: 9 mi

Pressure: 29.96 "Hg

Humidity: 88%

Dew point: 66 °F

Location of PeterboroughLocation

Historic Weather in Peterborough — Graph

°F

Peterborough temperature yesterday

Maximum temperature yesterday: 72 °F (at 12:00 PM)
Minimum temperature yesterday: 55 °F (at 12:00 AM)
Average temperature yesterday: 65 °F

Past Weeks' High & Low Weather Summary

 TemperatureHumidityPressure
High81 °F (Aug 11, 2:00 PM)100% (Aug 7, 4:00 AM)30.19 "Hg (Aug 7, 4:00 AM)
Low45 °F (Aug 19, 4:59 AM)39% (Aug 7, 4:00 PM)29.69 "Hg (Aug 13, 1:00 AM)
Average62 °F82%29.95 "Hg
* Reported Aug 6 7:00 PM — Aug 21 7:00 PM, Peterborough, Weather by CustomWeather, © 2014

Note: Actual official high and low records may vary slightly from our data, if they occured in-between our weather recording intervals... More about our weather records

Advertising

Peterborough weather history for previous 24 hours

 ConditionsComfort  
Time TempWeatherWind HumidityBarometerVisibility
7:00 PM
Aug 21
70 °FCloudy.3 mph88%29.96 "Hg9 mi
6:57 PM70 °FCloudy.3 mph88%29.96 "Hg9 mi
6:00 PM73 °FBroken clouds.2 mph83%29.94 "Hg9 mi
5:00 PM72 °FOvercast.5 mph83%29.93 "Hg9 mi
4:00 PM73 °FBroken clouds.5 mph83%29.93 "Hg9 mi
3:00 PM72 °FBroken clouds.6 mph88%29.94 "Hg9 mi
2:03 PM72 °FThunderstorms. Mostly cloudy.2 mph88%29.95 "Hg9 mi
1:50 PM72 °FThunderstorms. Partly sunny.5 mph83%29.94 "Hg9 mi
1:00 PM73 °FCloudy.3 mph78%29.94 "Hg9 mi
12:00 PM73 °FOvercast.5 mph78%29.95 "Hg9 mi
11:00 AM70 °FOvercast.2 mph88%29.95 "Hg9 mi
10:00 AM70 °FLow clouds.6 mph88%29.95 "Hg9 mi
9:47 AM70 °FCloudy.5 mph88%29.95 "Hg9 mi
9:00 AM68 °FFog.3 mph94%29.95 "Hg5 mi
8:00 AM66 °FFog.2 mph100%29.95 "Hg0 mi
7:01 AM66 °FFog.No wind94%29.94 "Hg2 mi
7:00 AM66 °FFog.No wind94%29.94 "Hg3 mi
6:00 AM66 °FFog.No wind94%29.92 "Hg2 mi
5:00 AM66 °FFog.No wind94%29.92 "Hg3 mi
4:00 AM66 °FLow clouds.No wind94%29.92 "Hg7 mi
3:00 AM66 °FLight rain. Fog.5 mph94%29.92 "Hg3 mi
2:58 AM66 °FLight rain. Fog.5 mph94%29.92 "Hg3 mi
2:03 AM66 °FLight rain. Mostly cloudy.5 mph94%29.93 "Hg9 mi
1:00 AM66 °FOvercast.5 mph94%29.94 "Hg9 mi
12:54 AM66 °FOvercast.6 mph94%29.94 "Hg9 mi
12:00 AM68 °FMostly cloudy.7 mph88%29.94 "Hg9 mi
11:00 PM
Aug 20
68 °FLow clouds.5 mph88%29.94 "Hg9 mi
10:00 PM68 °FMostly cloudy.5 mph88%29.94 "Hg9 mi
9:00 PM68 °FMostly cloudy.3 mph88%29.94 "Hg9 mi
8:00 PM68 °FOvercast.5 mph88%29.94 "Hg9 mi
Weather by CustomWeather, © 2014

See weather overviewHow to use our weather pages